I2476 LICC-LICR

Flight info

Callsign I2476
Flight time N/A
Altitude 10000
Route PIMOR NATOV
Aircraft A320/M-S/7123

Departure

Time N/A
Airport Catania-Fontanarossa Airport (LICC)

Arrival

Time 2026-04-23 19:33
Airport Reggio Calabria Airport (LICR)
Time Latitude Longitude Altitude Speed Heading
2026-04-23 19:09 37.46561 15.05230 0 ft 0 kts 89°
2026-04-23 19:09 37.46569 15.05336 0 ft 43 kts 84°
2026-04-23 19:09 37.46623 15.06036 0 ft 116 kts 84°
2026-04-23 19:10 37.46727 15.07283 0 ft 171 kts 84°
2026-04-23 19:10 37.46865 15.08853 0 ft 197 kts 83°
2026-04-23 19:10 37.47017 15.10513 0 ft 193 kts 83°
2026-04-23 19:10 37.47167 15.12153 0 ft 207 kts 91°
2026-04-23 19:11 37.46681 15.13854 0 ft 221 kts 135°
2026-04-23 19:11 37.45503 15.15074 0 ft 234 kts 145°
2026-04-23 19:11 37.44123 15.16261 0 ft 261 kts 147°
2026-04-23 19:11 37.42639 15.17476 0 ft 262 kts 148°
2026-04-23 19:12 37.41635 15.18279 0 ft 263 kts 147°
2026-04-23 19:12 37.40112 15.20458 0 ft 268 kts 107°
2026-04-23 19:12 37.40071 15.22764 0 ft 272 kts 71°
2026-04-23 19:12 37.41093 15.24692 0 ft 274 kts 36°
2026-04-23 19:13 37.42786 15.25571 0 ft 277 kts
2026-04-23 19:13 37.44677 15.25414 0 ft 285 kts 354°
2026-04-23 19:13 37.46582 15.25767 0 ft 285 kts 27°
2026-04-23 19:13 37.47992 15.27363 0 ft 287 kts 59°
2026-04-23 19:14 37.48847 15.29655 0 ft 289 kts 69°
2026-04-23 19:14 37.49525 15.32160 0 ft 319 kts 73°
2026-04-23 19:14 37.50114 15.34863 0 ft 326 kts 76°
2026-04-23 19:14 37.50615 15.37553 0 ft 324 kts 77°
2026-04-23 19:15 37.51072 15.40288 0 ft 325 kts 78°
2026-04-23 19:15 37.51493 15.43009 0 ft 324 kts 79°
2026-04-23 19:15 37.51885 15.45669 0 ft 324 kts 79°
2026-04-23 19:15 37.52282 15.48450 0 ft 325 kts 80°
2026-04-23 19:16 37.52659 15.51154 0 ft 324 kts 80°
2026-04-23 19:16 37.53039 15.53913 0 ft 324 kts 80°
2026-04-23 19:16 37.53411 15.56640 0 ft 305 kts 80°
2026-04-23 19:17 37.54071 15.61477 0 ft 278 kts 80°
2026-04-23 19:17 37.54400 15.63889 0 ft 279 kts 80°
2026-04-23 19:17 37.54719 15.66233 0 ft 277 kts 80°
2026-04-23 19:17 37.55038 15.68581 0 ft 278 kts 80°
2026-04-23 19:18 37.55360 15.70959 0 ft 279 kts 80°
2026-04-23 19:18 37.55680 15.73327 0 ft 278 kts 80°
2026-04-23 19:18 37.56155 15.75585 0 ft 276 kts 60°
2026-04-23 19:18 37.57463 15.77294 0 ft 274 kts 25°
2026-04-23 19:19 37.61071 15.77222 0 ft 257 kts 342°
2026-04-23 19:19 37.62680 15.76516 0 ft 241 kts 337°
2026-04-23 19:20 37.65505 15.74748 0 ft 230 kts 328°
2026-04-23 19:20 37.66821 15.73650 0 ft 228 kts 323°
2026-04-23 19:20 37.68068 15.72461 0 ft 230 kts 321°
2026-04-23 19:20 37.69299 15.71170 0 ft 228 kts 319°
2026-04-23 19:21 37.70476 15.69852 0 ft 226 kts 317°
2026-04-23 19:21 37.72687 15.67235 0 ft 226 kts 315°
2026-04-23 19:21 37.73792 15.65883 0 ft 226 kts 315°
2026-04-23 19:22 37.74905 15.64509 0 ft 226 kts 315°
2026-04-23 19:22 37.76000 15.63148 0 ft 227 kts 315°
2026-04-23 19:22 37.78225 15.60374 0 ft 226 kts 315°
2026-04-23 19:23 37.79326 15.59003 0 ft 226 kts 315°
2026-04-23 19:23 37.80412 15.57650 0 ft 226 kts 315°
2026-04-23 19:23 37.81531 15.56257 0 ft 226 kts 315°
2026-04-23 19:24 37.83889 15.53827 0 ft 226 kts 349°
2026-04-23 19:24 37.85402 15.53896 0 ft 225 kts 12°
2026-04-23 19:24 37.88408 15.54994 0 ft 226 kts 18°
2026-04-23 19:25 37.91256 15.56354 0 ft 224 kts 22°
2026-04-23 19:25 37.94071 15.57785 0 ft 221 kts
2026-04-23 19:26 37.96405 15.55993 0 ft 219 kts 284°
2026-04-23 19:26 37.96786 15.54175 0 ft 219 kts 285°
2026-04-23 19:27 37.97601 15.50532 0 ft 216 kts 285°
2026-04-23 19:27 38.00460 15.50309 0 ft 202 kts 78°
2026-04-23 19:28 38.01167 15.53602 0 ft 194 kts 65°
2026-04-23 19:28 38.02463 15.56101 0 ft 195 kts 45°
2026-04-23 19:29 38.03328 15.57146 0 ft 194 kts 40°
2026-04-23 19:29 38.05113 15.59149 0 ft 197 kts 53°
2026-04-23 19:30 38.04872 15.62611 0 ft 281 kts 151°
2026-04-23 19:30 38.03076 15.62710 0 ft 273 kts 204°
2026-04-23 19:30 38.01356 15.63271 0 ft 162 kts 56°
2026-04-23 19:31 38.02234 15.63968 0 ft 128 kts 45°
2026-04-23 19:31 38.02454 15.65269 0 ft 135 kts 84°
2026-04-23 19:31 38.03025 15.66047 0 ft 138 kts 355°
2026-04-23 19:31 38.03770 15.65485 0 ft 140 kts 323°
2026-04-23 19:32 38.04331 15.65289 0 ft 134 kts 16°
2026-04-23 19:32 38.04942 15.65953 0 ft 126 kts 46°
2026-04-23 19:32 38.05696 15.66171 0 ft 140 kts 325°
2026-04-23 19:32 38.06315 15.65492 0 ft 113 kts 336°
2026-04-23 19:33 38.06800 15.65279 0 ft 72 kts 334°
2026-04-23 19:33 38.06997 15.65157 0 ft 0 kts 334°